Regional Weather Roundup
Issued by NWS Green Bay, WI

Home | Current Version | Previous Version | Graphics & Text | Print | Product List | Glossary Off
Versions: 1 2 3 4 5 6 7 8 9 10 11 12 13 14 15 16 17 18 19 20 21 22 23 24 25 26 27 28 29 30 31 32 33 34 35 36 37 38 39 40 41 42 43 44 45 46 47 48 49 50

000
ASUS43 KGRB 221500
RWRGRB

NORTH-CENTRAL AND NORTHEAST WISCONSIN REGIONAL WEATHER ROUNDUP
NATIONAL WEATHER SERVICE GREEN BAY WI
1000 AM CDT TUE AUG 22 2017

WIZ005-009-010>012-018-019-221600-
NORTH CENTRAL WISCONSIN

CITY           SKY/WX    TMP DP  RH WIND       PRES   REMARKS
IRONWOOD       PTSUNNY   60  54  80 NW14      29.89S
MANITOWISH WTR NOT AVBL
ARBOR VITAE    NOT AVBL
EAGLE RIVER    NOT AVBL
LAND O LAKES   NOT AVBL
RHINELANDER    PTSUNNY   63  53  70 W13       29.89R
PHILLIPS       CLOUDY    59  52  78 NW12G24   29.92R
ANTIGO         NOT AVBL
TOMAHAWK       NOT AVBL
MERRILL        NOT AVBL
$$

WIZ013-073-221600-
NORTHEAST WISCONSIN

CITY           SKY/WX    TMP DP  RH WIND       PRES   REMARKS
IRON MOUNTAIN  CLOUDY    63  52  67 NW10      29.81R
MARINETTE      PTSUNNY   68  55  63 NW10G16   29.81R
$$

WIZ017-030-035>037-045-221600-
CENTRAL WISCONSIN

CITY           SKY/WX    TMP DP  RH WIND       PRES   REMARKS
MEDFORD        NOT AVBL
WAUSAU         MOSUNNY   65  52  62 NW15G21   29.89R
MOSINEE        MOSUNNY   63  55  77 NW13      29.91R
MARSHFIELD     PTSUNNY   65  53  65 NW16G24   29.92R
WISC RAPIDS    SUNNY     69  55  60 N13       29.92R
STEVENS POINT  NOT AVBL
WAUPACA        NOT AVBL
SHAWANO        NOT AVBL
CLINTONVILLE   NOT AVBL
WAUTOMA        MOSUNNY   69  57  65 NW10G18   29.90R
$$

WIZ038-039-048-051-221600-
FOX VALLEY

CITY           SKY/WX    TMP DP  RH WIND       PRES   REMARKS
NWS GREEN BAY  PTSUNNY   67  56  67 NW16G25   29.84R
APPLETON       PTSUNNY   66  52  59 NW13      29.84R
OSHKOSH        PTSUNNY   68  56  65 NW12G25   29.85R
FOND DU LAC    MOSUNNY   70  59  68 NW21G28   29.85R
$$

WIZ022-050-052-221600-
EAST CENTRAL WISCONSIN

CITY           SKY/WX    TMP DP  RH WIND       PRES   REMARKS
EPHRAIM        NOT AVBL
WASHINGTON ISL NOT AVBL
STURGEON BAY   MOSUNNY   67  57  70 NW13G22   29.81R
MANITOWOC      NOT AVBL
SHEBOYGAN      MOSUNNY   72  65  78 W10G18    29.82R
$$

LMZ563-521-522-541>543-221600-
LAKESHORE

STATION/POSITION TIME  TEMP    WIND        PRES    VSBY  WAVE
                       AIR SEA DIR/SP/G                  HT/PER
                 (UTC) (F)     (DEG/KT/KT) (MB)    (MI)  (FT/S)
SHEBOYGAN LKSHOR 1400   70     280/ 22/ 24 1008.3R
KEWAUNEE LKSHORE 1430   68     330/  8/ 16 1008.1R
NORTHPORT PIER   1440   65     320/ 17/ 25 1008.1R
N MID LAKE BUOY  1350   63 68  310/ 23/ 27 1006.7R         3/ 4
S GREEN BAY BUOY 1430   67 71  310/ 17/ 19 1009.3R
MENOMINEE LKSHOR 1430   65     320/ 16/ 20 1008.6R
$$



USA.gov is the U.S. government's official web portal to all federal, state and local government web resources and services.